Weather History for KMRT - January, 2014

Change the Weather History Date:

Monday, January 27, 2014

  Actual Average (KDLZ) Record (KDLZ)
Temperature  
Mean Temperature 16 °F -  
Max Temperature 39 °F 33 °F 61 °F (1974)
Min Temperature -8 °F 15 °F -9 °F (1936)
Degree Days  
Heating Degree Days 49    
Moisture  
Dew Point -3 °F    
Average Humidity 62    
Maximum Humidity 82    
Minimum Humidity 43    
Precipitation  
Precipitation 0.00 in - - ()
Sea Level Pressure  
Sea Level Pressure 30.04 in    
Wind  
Wind Speed 17 mph (WNW)    
Max Wind Speed 29 mph    
Max Gust Speed 40 mph    
Visibility 10 miles    
Events      
Averages and records for this station are not official NWS values.
T = Trace of Precipitation, MM = Missing Value Source: NWS Daily Summary

Daily Weather History Graph

Daily Weather History Graph

Search for Another Location

Airport or City:

Trip Planner

Search our weather history database for the weather conditions in past years. The results will help you decide how hot, cold, wet, or windy it might be!

Date:

Astronomy

Jan. 27, 2014 Rise Set
Actual Time 7:46 AM EST 5:46 PM EST
Civil Twilight 7:17 AM EST 6:15 PM EST
Nautical Twilight 6:44 AM EST 6:47 PM EST
Astronomical Twilight 6:12 AM EST 7:20 PM EST
Moon 4:26 AM EST (1/27) 2:31 PM EST (1/27)
Length of Visible Light 10h 57m
Length of Day
9h 59m
Waning Crescent, 15% of the Moon is Illuminated
Jan 27
Waning Crescent
Jan 30
New
Feb 6
First Quarter
Feb 14
Full
Feb 22
Last Quarter

Hourly Weather History & Observations

Time (EST) Temp. Windchill Dew Point Humidity Pressure Visibility Wind Dir Wind Speed Gust Speed Precip Events Conditions
12:15 AM 37.4 °F 28.5 °F 27.5 °F 67% 29.48 in 10.0 mi SW 15.0 mph - N/A   Overcast
12:34 AM 38.3 °F 29.7 °F 27.5 °F 65% 29.47 in 10.0 mi SW 15.0 mph - N/A   Overcast
12:54 AM 39.6 °F 30.0 °F 27.1 °F 61% 29.48 in 10.0 mi WSW 19.6 mph 25.3 mph N/A   Overcast
1:15 AM 39.7 °F 30.0 °F 27.5 °F 62% 29.50 in 10.0 mi WSW 20.7 mph 26.5 mph N/A   Overcast
1:34 AM 36.1 °F 25.9 °F 28.6 °F 74% 29.54 in 7.0 mi NW 18.4 mph 38.0 mph N/A   Overcast
1:54 AM 31.3 °F 17.4 °F 26.2 °F 82% 29.58 in - NW 26.5 mph 33.4 mph N/A   Overcast
2:15 AM 25.9 °F 10.1 °F 20.3 °F 79% 29.61 in - NW 26.5 mph 34.5 mph N/A   Overcast
2:34 AM 23.4 °F 9.2 °F 18.1 °F 80% 29.65 in 2.5 mi WNW 18.4 mph 33.4 mph N/A   Overcast
2:54 AM 21.2 °F 5.6 °F 15.4 °F 78% 29.68 in - WNW 20.7 mph 35.7 mph N/A   Overcast
3:15 AM 20.8 °F 5.5 °F 11.7 °F 68% 29.68 in - WNW 19.6 mph 29.9 mph N/A   Overcast
3:34 AM 20.5 °F 3.5 °F 0.9 °F 43% 29.70 in 10.0 mi NW 24.2 mph 35.7 mph N/A   Overcast
3:54 AM 18.5 °F 0.6 °F 2.7 °F 50% 29.73 in 10.0 mi WNW 25.3 mph 36.8 mph N/A   Overcast
4:15 AM 16.7 °F -2.8 °F 1.8 °F 52% 29.76 in 10.0 mi WNW 28.8 mph 36.8 mph N/A   Overcast
4:34 AM 15.6 °F -1.8 °F 3.7 °F 59% 29.79 in 10.0 mi WNW 20.7 mph 29.9 mph N/A   Overcast
4:54 AM 13.5 °F -5.8 °F 3.4 °F 64% 29.82 in 10.0 mi WNW 24.2 mph 40.3 mph N/A   Overcast
5:15 AM 12.6 °F -5.8 °F 3.6 °F 67% 29.85 in 10.0 mi WNW 20.7 mph 28.8 mph N/A   Overcast
5:34 AM 11.1 °F -8.1 °F 0.5 °F 62% 29.87 in 10.0 mi NW 21.9 mph 31.1 mph N/A   Mostly Cloudy
5:54 AM 10.2 °F -5.0 °F -0.2 °F 63% 29.89 in 10.0 mi WNW 12.7 mph - N/A   Scattered Clouds
6:14 AM 9.3 °F -9.6 °F -1.3 °F 62% 29.90 in 10.0 mi WNW 19.6 mph 29.9 mph N/A   Clear
6:34 AM 8.2 °F -11.5 °F -1.7 °F 64% 29.93 in 10.0 mi WNW 20.7 mph 25.3 mph N/A   Scattered Clouds
6:54 AM 7.3 °F -13.1 °F -2.2 °F 65% 29.95 in 10.0 mi WNW 21.9 mph 26.5 mph N/A   Scattered Clouds
7:15 AM 6.8 °F -12.4 °F -2.4 °F 66% 29.97 in 10.0 mi WNW 18.4 mph 26.5 mph N/A   Clear
7:34 AM 6.4 °F -13.3 °F -2.6 °F 67% 29.98 in 10.0 mi WNW 19.6 mph 28.8 mph N/A   Clear
7:54 AM 6.3 °F -12.5 °F -3.3 °F 65% 30.01 in 10.0 mi WNW 17.3 mph 28.8 mph N/A   Clear
8:14 AM 5.5 °F -12.3 °F -4.0 °F 65% 30.02 in 10.0 mi WNW 15.0 mph 26.5 mph N/A   Clear
8:34 AM 5.0 °F -13.0 °F -4.2 °F 66% 30.03 in 10.0 mi WNW 15.0 mph 21.9 mph N/A   Clear
8:54 AM 5.0 °F -13.0 °F -4.9 °F 64% 30.05 in 10.0 mi WNW 15.0 mph 21.9 mph N/A   Clear
9:14 AM 5.0 °F -11.6 °F -4.9 °F 64% 30.07 in 10.0 mi West 12.7 mph 19.6 mph N/A   Clear
9:34 AM 4.5 °F -14.9 °F -5.3 °F 64% 30.08 in 10.0 mi WNW 17.3 mph 24.2 mph N/A   Clear
9:54 AM 4.6 °F -14.0 °F -4.9 °F 65% 30.09 in 10.0 mi WNW 16.1 mph 21.9 mph N/A   Clear
10:14 AM 6.3 °F -13.1 °F -4.0 °F 63% 30.11 in 10.0 mi West 18.4 mph 23.0 mph N/A   Clear
10:34 AM 4.5 °F -15.9 °F -5.8 °F 63% 30.12 in 10.0 mi WNW 19.6 mph - N/A   Clear
10:54 AM 5.9 °F -11.8 °F -4.9 °F 61% 30.12 in 10.0 mi West 15.0 mph 23.0 mph N/A   Clear
11:14 AM 5.9 °F -14.5 °F -5.3 °F 60% 30.13 in 10.0 mi West 20.7 mph - N/A   Clear
11:34 AM 6.3 °F -11.3 °F -5.1 °F 60% 30.13 in 10.0 mi West 15.0 mph 21.9 mph N/A   Clear
11:54 AM 5.9 °F -11.8 °F -5.3 °F 60% 30.13 in 10.0 mi West 15.0 mph - N/A   Clear
12:14 PM 6.3 °F -10.7 °F -5.3 °F 59% 30.14 in 10.0 mi West 13.8 mph - N/A   Clear
12:34 PM 6.4 °F -12.3 °F -5.6 °F 58% 30.14 in 10.0 mi West 17.3 mph 20.7 mph N/A   Clear
12:55 PM 6.1 °F -13.3 °F -5.6 °F 59% 30.13 in 10.0 mi West 18.4 mph 21.9 mph N/A   Clear
1:14 PM 6.3 °F -12.5 °F -5.6 °F 58% 30.14 in 10.0 mi West 17.3 mph - N/A   Clear
1:34 PM 6.6 °F -10.9 °F -5.8 °F 57% 30.14 in 10.0 mi West 15.0 mph 21.9 mph N/A   Clear
1:54 PM 6.6 °F -10.9 °F -5.6 °F 57% 30.13 in 10.0 mi West 15.0 mph 20.7 mph N/A   Clear
2:14 PM 6.8 °F -10.0 °F -5.1 °F 58% 30.13 in 10.0 mi West 13.8 mph - N/A   Clear
2:34 PM 7.0 °F -10.4 °F -4.9 °F 58% 30.14 in 10.0 mi West 15.0 mph 19.6 mph N/A   Clear
2:54 PM 6.8 °F -11.8 °F -5.6 °F 57% 30.14 in 10.0 mi West 17.3 mph - N/A   Scattered Clouds
3:14 PM 6.8 °F -10.7 °F -6.2 °F 55% 30.15 in 10.0 mi West 15.0 mph - N/A   Scattered Clouds
3:34 PM 6.3 °F -11.3 °F -7.4 °F 54% 30.16 in 10.0 mi West 15.0 mph - N/A   Clear
3:55 PM 5.4 °F -13.7 °F -8.1 °F 54% 30.16 in 10.0 mi West 17.3 mph - N/A   Scattered Clouds
4:14 PM 4.8 °F -13.8 °F -8.3 °F 55% 30.18 in 10.0 mi West 16.1 mph - N/A   Clear
4:34 PM 4.3 °F -13.9 °F -8.1 °F 56% 30.18 in 10.0 mi West 15.0 mph - N/A   Scattered Clouds
4:54 PM 3.9 °F -15.0 °F -8.5 °F 56% 30.18 in 10.0 mi West 16.1 mph - N/A   Clear
5:14 PM 3.2 °F -15.3 °F -8.9 °F 57% 30.19 in 10.0 mi West 15.0 mph - N/A   Clear
5:34 PM 2.3 °F -14.2 °F -9.4 °F 58% 30.19 in 10.0 mi West 11.5 mph - N/A   Clear
5:54 PM 1.0 °F -16.6 °F -10.3 °F 59% 30.20 in 10.0 mi West 12.7 mph - N/A   Clear
6:14 PM 0.1 °F -15.1 °F -10.7 °F 60% 30.22 in 10.0 mi West 9.2 mph - N/A   Clear
6:34 PM -1.3 °F -14.5 °F -11.2 °F 63% 30.23 in 10.0 mi WNW 6.9 mph - N/A   Clear
6:55 PM -1.3 °F -15.7 °F -11.2 °F 63% 30.25 in 10.0 mi WNW 8.1 mph - N/A   Clear
7:14 PM -0.9 °F -17.4 °F -10.7 °F 63% 30.26 in 10.0 mi WNW 10.4 mph - N/A   Clear
7:34 PM -1.3 °F -15.7 °F -11.0 °F 63% 30.27 in 10.0 mi WNW 8.1 mph - N/A   Clear
7:55 PM -1.5 °F -19.0 °F -10.7 °F 65% 30.27 in 10.0 mi WNW 11.5 mph 17.3 mph N/A   Clear
8:14 PM -1.5 °F -18.1 °F -11.4 °F 63% 30.27 in 10.0 mi WNW 10.4 mph - N/A   Clear
8:34 PM -2.2 °F -18.0 °F -12.1 °F 63% 30.28 in 10.0 mi WNW 9.2 mph - N/A   Clear
8:55 PM -2.7 °F -20.5 °F -11.9 °F 65% 30.29 in 10.0 mi WNW 11.5 mph - N/A   Clear
9:14 PM -3.3 °F -18.2 °F -12.1 °F 66% 30.30 in 10.0 mi WNW 8.1 mph - N/A   Clear
9:34 PM -3.5 °F -21.4 °F -12.3 °F 66% 30.30 in 10.0 mi WNW 11.5 mph - N/A   Clear
9:55 PM -3.6 °F -21.7 °F -13.0 °F 64% 30.32 in 10.0 mi WNW 11.5 mph 18.4 mph N/A   Clear
10:14 PM -4.5 °F -20.8 °F -13.7 °F 65% 30.33 in 10.0 mi WNW 9.2 mph - N/A   Clear
10:34 PM -5.6 °F -22.2 °F -14.8 °F 65% 30.34 in 10.0 mi WNW 9.2 mph - N/A   Clear
10:55 PM -5.8 °F -24.4 °F -14.8 °F 65% 30.34 in 10.0 mi WNW 11.5 mph - N/A   Clear
11:14 PM -6.2 °F -22.8 °F -15.7 °F 63% 30.34 in 10.0 mi WNW 9.2 mph - N/A   Clear
11:34 PM -7.4 °F -24.4 °F -16.8 °F 64% 30.34 in 10.0 mi West 9.2 mph - N/A   Clear
11:54 PM -8.0 °F -22.5 °F -17.1 °F 64% 30.34 in 10.0 mi West 6.9 mph - N/A   Clear